This is the latest recevied weather packets stored in our database for station/object KB2KRJ. If no packets are shown the sender has not sent any weather packets the latest 10 day(s).
| Time | Temp. | Humidity | Pressure | Rain* | Wind** | Luminosity | Snow |
|---|---|---|---|---|---|---|---|
| 1777806048 | 3.89° C | 69% | 1012.1 hPa | 0 mm | - | - | - |
| 1777805151 | 3.89° C | 70% | 1011.9 hPa | 0 mm | - | - | - |
| 1777798837 | 3.33° C | 70% | 1011.7 hPa | 0 mm | - | - | - |
| 1777794332 | 2.22° C | 69% | 1012.1 hPa | 0 mm | - | - | - |
| 1777790726 | 2.78° C | 70% | 1012.3 hPa | 0 mm | - | - | - |
| 1777789824 | 2.78° C | 69% | 1012.5 hPa | 0 mm | - | - | - |
| 1777788040 | 2.22° C | 66% | 1012.9 hPa | 0 mm | - | - | - |
| 1777785315 | 1.11° C | 66% | 1013.2 hPa | 0 mm | - | - | - |
| 1777782617 | 1.67° C | 69% | 1013.6 hPa | 0 mm | - | - | - |
| 1777774552 | 3.89° C | 69% | 1013.9 hPa | 0 mm | - | - | - |
| 1777773649 | 4.44° C | 68% | 1013.8 hPa | 0 mm | - | - | - |
| 1777772751 | 4.44° C | 69% | 1013.8 hPa | 0 mm | - | - | - |
| 1777766433 | 8.33° C | 53% | 1012.6 hPa | 0 mm | - | - | - |
| 1777765546 | 8.89° C | 49% | 1012.5 hPa | 0 mm | - | - | - |
| 1777763730 | 9.44° C | 44% | 1012.3 hPa | 0 mm | - | - | - |
| 1777751121 | 11.67° C | 40% | 1011.7 hPa | 0 mm | - | - | - |
| 1777747519 | 12.22° C | 43% | 1011.9 hPa | 0 mm | - | - | - |
| 1777742113 | 11.67° C | 45% | 1012.1 hPa | 0 mm | - | - | - |
| 1777737606 | 10.56° C | 54% | 1012.6 hPa | 0 mm | - | - | - |
| 1777734904 | 10.56° C | 62% | 1013 hPa | 0 mm | - | - | - |
| 1777730455 | 9.44° C | 68% | 1013.1 hPa | 0 mm | - | - | - |
| 1777727751 | 8.89° C | 61% | 1013.3 hPa | 0 mm | - | - | - |
| 1777726849 | 7.78° C | 54% | 1013.3 hPa | 0 mm | - | - | - |
| 1777723252 | - | - | 1013 hPa | 0 mm | - | - | - |
| 1777717817 | - | - | 1012.6 hPa | 0.25 mm | - | - | - |
* Rain latest hour (hover to see other rain measurements)
** Current wind speed in m/s (hover to see current wind gust speed)